Погода в Туркменбаши

Туркменистан     40°00′39″N   52°59′26″E
темп.,
°C
ветер,
м/с
пор.,
м/с
влажн.,
%
обл.,
%
осадки,
мм/ч
давл.,
гПа
погр.,
м
17 мая, вт
вт1723:00+19с121559100 0.1 1009261
02:00+17ссз11137021 0.0 1011368
05:00+16ссз1217785 0.0 1011380
08:00+19с12166292 0.0 1013591
11:00+21с1011545 0.0 1014783
14:00+24ссз984460 0.0 10131332
17:00+22ссз1010495 0.0 1013792
20:00+20ссз89545 0.0 1014403
18 мая, ср
ср1823:00+19с79545 0.0 1015271
02:00+18ссз710565 0.0 1015248
05:00+17с6105661 0.0 1015187
08:00+18ссв574989 0.0 1016174
11:00+22с124268 0.0 1016750
14:00+23з434099 0.0 10151180
17:00+23зсз64418 0.0 1014625
20:00+21сз554298 0.0 1014298
19 мая, чт
чт1923:00+21ссз224388 0.0 1014123
02:00+20сз33460 0.0 101364
05:00+19с22480 0.0 101211
08:00+21ссв11450 0.0 101373
11:00+23зюз22410 0.0 1014391
14:00+23зюз43440 0.0 1013401
17:00+23з65450 0.0 1012311
20:00+22зсз56490 0.0 1011186
20 мая, пт
пт2023:00+21ссз57500 0.0 1012168
02:00+19ссз79600 0.0 1012232
05:00+16ссз1115840 0.0 1012367
08:00+16ссз14167995 0.0 1014542
11:00+17ссз15166799 0.0 1016720
14:00+18ссз1415615 0.0 1017903
17:00+17ссз13145934 0.0 10181038
20:00+15ссз141669100 0.0 10201064
21 мая, сб
сб2123:00+15сз81064100 0.1 1022840
02:00+14зсз711720 0.0 1023813
05:00+14зсз811765 0.0 1023523
08:00+15зсз911682 0.0 1025849
11:00+17зсз99612 0.0 10251027
14:00+18зсз88530 0.0 10241058
17:00+19сз66510 0.0 1022901
20:00+18зсз43530 0.0 1021577